Tracking 19796 objects as of 19-Jul-2019
HD Live streaming from Space Station
objects crossing your sky now

FENGYUN 1C DEB

Track FENGYUN 1C DEB now!
10-day predictions


NORAD ID: 32317
Int'l Code: 1999-025CXJ
Perigee: 699.0 km
Apogee: 910.9 km
Inclination: 98.0 °
Period: 100.8 minutes
Semi major axis: 7175 km
RCS: 0.0099 m2 (small)
Launch date: May 10, 1999
Source: People's Republic of China (PRC)
Launch site: Taiyaun Space Center, China (TSC)

Note: This is SATELLITE DEBRIS
aabbcc
Your satellite tracking list
Your tracking list is empty




NASA's NSSDC Master Catalog

Two Line Element Set (TLE):
1 32317U 99025CXJ 19194.69089367  .00000937  00000-0  34948-3 0  9993
2 32317  98.0067 159.7451 0147653 202.8280 156.6295 14.28178441619479
Source of the keplerian elements: AFSPC